Regional Weather Roundup
Issued by NWS Wakefield, VA

Home | Current Version | Previous Version | Graphics & Text | Print | Product List | Glossary On
Versions: 1 2 3 4 5 6 7 8 9 10 11 12 13 14 15 16 17 18 19 20 21 22 23 24 25 26 27 28 29 30 31 32 33 34 35 36 37 38 39 40 41 42 43 44 45 46 47 48 49 50
000
ASUS41 KAKQ 250510
RWRAKQ

REGIONAL WEATHER ROUNDUP
NATIONAL WEATHER SERVICE WAKEFIELD VA
1200 AM EST SUN JAN 25 2015

Note: "fair" indicates few or no clouds below 12,000 feet with no
significant weather and/or obstructions to visibility. * = Denotes
station may not report precipitation (e.g., rain,snow,etc.),
thunder or fog.

VAZ042-051-052>054-056-250600-
NORTHERN VIRGINIA

CITY           SKY/WX    TMP DP  RH WIND       PRES   REMARKS
WASH NATIONAL  CLOUDY    41  26  55 W9G18     29.68R
DULLES         CLOUDY    35  26  69 CALM      29.68R
FORT BELVOIR   CLOUDY    39  27  61 W6        29.70R
QUANTICO       CLOUDY    36  29  75 NW5       29.71R
FREDERICKSBRG* CLOUDY    37  28  71 W6        29.70R
STAFFORD*      CLOUDY    37  24  59 CALM      29.74R
WARRENTON      CLOUDY    38  31  77 CALM      29.69R
CULPEPER*      CLOUDY    37  28  70 CALM      29.69S
MANASSAS*      CLOUDY    37  28  70 W5        29.69R
LEESBURG*      CLOUDY    37  30  75 NW21G32   29.67R
WINCHESTER     CLOUDY    37  25  60 W13       29.67R
FRONT ROYAL*   CLOUDY    37  27  65 W3G26     29.67R
LURAY*         CLOUDY    37  30  75 SW6       29.69S
$$

VAZ048-049-060>072-079>083-250600-
CENTRAL AND SOUTH CENTRAL VIRGINIA

CITY           SKY/WX    TMP DP  RH WIND       PRES   REMARKS
RICHMOND       CLEAR     37  25  61 W8        29.73R
CHESTERFIELD*  FAIR      36  18  48 W12       29.75R
PETERSBURG*    CLEAR     36  27  70 W9        29.75S
HANOVER        CLEAR     35  26  69 W9        29.74R
TAPPAHANNOCK*  CLEAR     35  26  69 SW5       29.72R
QUINTON*       FAIR      32  28  82 CALM      29.73R
CHARLOTTSVILLE CLOUDY    37  25  61 SW3       29.70R
GORDONSVILLE*  FAIR      38  25  60 W5        29.70R
ORANGE*        PTCLDY    36  28  75 S6        29.71S
LOUISA*        PTCLDY    36  27  69 SW6       29.70R
BUMPASS*       FAIR      36  25  66 W7        29.71R
FARMVILLE*     MOCLDY    34  26  73 SW5       29.75R
CREWE*         FAIR      35  24  66 CALM      29.75S
FORT PICKETT*  FAIR      34  26  71 W6        29.76R
CHASE CITY*    FAIR      37  29  72 W5        29.77R
CLARKSVILLE*   FAIR      34  27  75 W5        29.78R
SOUTH HILL*    CLEAR     35  25  67 W3        29.83R
LAWRENCEVILLE* FAIR      36  27  67 W6        29.77R
EMPORIA*       CLEAR     36  27  69 W8        29.78S
$$

VAZ088>098-250600-
SOUTHEAST VIRGINIA

CITY           SKY/WX    TMP DP  RH WIND       PRES   REMARKS
NORFOLK        CLEAR     38  28  67 W8G18     29.73R
VIRGINIA BEACH CLEAR     39  29  67 W13       29.73R
NORFOLK NAVAL  CLEAR     41  29  62 W10       29.75R
WEST POINT*    CLEAR     37  28  72 W6        29.74R
SALUDA*        FAIR      35  29  80 W6        29.71R
NEWPORT NEWS   CLEAR     40  28  62 W12       29.74R
LANGLEY AFB    CLEAR     37  29  70 W12       29.73R
FORT EUSTIS    CLEAR     37  29  70 NW9       29.72R
WILLIAMSBURG*    N/A    N/A N/A N/A MISG      29.72S
HR EXEC AP*    FAIR      36  28  75 W8        29.77R
FRANKLIN*      CLEAR     36  28  73 W7        29.77R
WAKEFIELD      CLEAR     36  27  69 SW7       29.75R
$$

VAZ020-022-025-037-045-250600-
WEST CENTRAL AND SOUTHWEST VIRGINIA

CITY           SKY/WX    TMP DP  RH WIND       PRES   REMARKS
STAUNTON*      CLOUDY    35  26  67 S3        29.72R
WAYNESBORO*    CLOUDY    34  25  68 W3        29.69S
HOT SPRINGS VA CLOUDY    26  26 100 W15       29.58S WCI  13
LYNCHBURG      CLOUDY    38  26  62 W12G20    29.75R
DANVILLE       CLOUDY    38  26  62 W7        29.80R
SOUTH BOSTON*  CLOUDY    35  25  67 CALM      29.79R
MARTINSVILLE   PTCLDY    36  28  71 CALM      29.81S
ROANOKE        CLOUDY    38  26  62 NW16G28   29.78R
BLACKSBURG     CLOUDY    32  26  79 W15G24    29.79R WCI  22
DUBLIN*        CLOUDY    35  29  79 W15G25    29.79S
MARION*        CLOUDY    33  28  79 W17G33    29.82R WCI  22
HILLSVILLE*    CLOUDY    32  27  82 NW15G21   29.76R WCI  22
RICHLANDS*     CLOUDY    32  27  80 W8G17     29.83S
WISE*          CLOUDY    32  28  86 SW5       29.84S
ABINGDON*      CLOUDY    34  30  83 W5        29.88R
$$

MDZ021>025-VAZ099-100-250600-
SOUTHERN MARYLAND AND THE DELMARVA PENINSULA

CITY           SKY/WX    TMP DP  RH WIND       PRES   REMARKS
PATUXENT RIVER PTCLDY    34  27  75 W9        29.69R
BAY BRIDGE APT   N/A     36  30  80 W9        29.66R
LEONARDTOWN    PTCLDY    32  28  86 W3        29.71R
DOVER          PTCLDY    34  28  78 SW6       29.62R
GEORGETOWN     CLEAR     35  27  72 W6        29.65R
EASTON         PTCLDY    38  30  74 W3        29.69R
CAMBRIDGE      CLEAR     37  28  70 W6        29.67R
SALISBURY      PTCLDY    38  27  64 W10       29.67R
OCEAN CITY     CLEAR     35  27  72 W8        29.66R
WALLOPS ISLAND CLEAR     36  32  85 W7        29.69R
ACCOMACK*      CLEAR     36  34  93 W9        29.70R
$$

NCZ012>017-030>032-250600-
NORTH CENTRAL AND EASTERN NORTH CAROLINA

CITY           SKY/WX    TMP DP  RH WIND       PRES   REMARKS
ROANOKE RAPIDS FAIR      37  28  70 W7        29.79R
RALEIGH        CLEAR     38  24  57 W5        29.82R
ELIZABETH CITY CLEAR     39  30  70 W13       29.76R
AHOSKIE*       CLEAR     37  27  67 W3        29.79R
EDENTON*       CLEAR     40  30  68 NW8       29.78R
CURRITUCK*     CLEAR     39  32  75 W12       29.75R
KILL DEVIL HLS CLEAR     42  34  72 W15       29.74R
MANTEO         CLEAR     41  36  81 W7        29.76R
CAPE HATTERAS  CLEAR     45  37  73 W13G24    29.78R
TARBORO*       FAIR      37  29  72 W3        29.81R
GOLDSBORO      CLEAR     37  36  97 W6        29.81R
WASHINGTON     CLEAR     39  29  68 CALM      29.80R
GREENVILLE     CLEAR     39  32  75 W3        29.84R
NEW BERN       CLEAR     41  36  82 W7        29.83R
WILMINGTON     CLEAR     42  39  89 W7        29.86R
$$

VAZ048-250600-
ELSEWHERE

CITY           SKY/WX    TMP DP  RH WIND       PRES   REMARKS
HARRISBURG PA  CLOUDY    35  26  69 NW8       29.60R
BALTIMORE      CLOUDY    37  26  64 W14       29.64R
ANNAPOLIS      PTCLDY    36  26  67 W6        29.66R
ANDREWS AFB    CLOUDY    38  26  63 W15G21    29.66R
PHILADELPHIA   MOCLDY    36  25  64 W13       29.60R
HENDERSON NC   CLEAR     34  24  68 SW5       29.79R
GREENSBORO     CLEAR     35  24  64 W5        29.80R
ROCKY MOUNT    CLEAR     38  27  64 W5        29.81R
$$

VAZ100-250600-
MARINE

STATION/POSITION TIME  TEMP    WIND        PRES    WAVE   SWELL
                       AIR SEA DIR/SP/G            HT/PER HT/PER
                 (UTC) (F)     (DEG/KT/KT) (MB)    (FT/S) (FT/S)
BRANDYWINE LGT   0500   38 37  290/ 19/ 21 1003.0R
CAPE MAY NJ      0500   37 39  290/ 10/ 15 1002.5R
LEWES DE         0500   36 38  270/  8/ 10 1003.3R
15NM E FENWICK I 0500   39 42              1002.8R   5/10
OCEAN-CITY-INLET 0500   37 39  300/  9/ 13 1003.8R
WACHAPREAGUE VA  0500   37 41  260/  3/  5 1005.5R
THOMAS POINT MD  0500   37 37  280/ 10/ 12 1005.6R
GOOSES REEF MD   0500   38     VRB 14/ 17  1003.7R
COVE POINT MD    0500   37     290/  8/ 10 1004.9R
SOLOMONS ISLAND  0500      38                N/A
BISHOPS HEAD MD  0500   38 37  280/ 12/ 13 1004.7R
PINEY POINT MD   0500          300/  7/  8   N/A
POTOMAC MD       0500   38     290/ 10/ 12 1004.6R
CAMBRIDGE MD     0500   38 36  270/  8/ 13 1004.5R
LEWISETTA VA     0500   37 38  270/ 10/ 12 1005.8R
RAPPAHANNOCK LGT 0500          260/ 14/ 16 1006.1R
STINGRAY PT      0500   39     270/ 14/ 17 1006.6R
YORK RVR RNG VA  0500   40     280/ 17/ 19 1005.4R
JAMESTOWN VA     0500   37     290/ 12/ 16   N/A
DOMINION TERM VA 0500   40     280/ 15/ 18 1006.6R
KIPTOPEKE VA     0500      45  290/ 17/ 19   N/A
CHES BAY BRIDGE  0500   40 41  250/ 19/ 22 1006.1R
CAPE HENRY VA    0500   39     260/ 11/ 17 1005.1R
CHESAPEAKE LGHT  0400   42     270/ 22/ 24 1005.9R
WILLOUBY STN VA  0500   40     270/ 16/ 19 1006.9R
S CRANEY ISL VA  0500          240/  7/ 11 1006.9R
CAPE HENRY BUOY  0500      45                N/A     4/11   2/11
1ST LANDING BUOY 0500   41     270/ 17/ 21 1005.6S
CAPE CHARLES BUO 0500      43                N/A     3/11   3/11
OFFSHORE WE BUOY 0500      47                N/A     5/ 5   3/11
64NM E OF VA BCH 0500   46 53  280/ 23/ 27 1005.1R   8/12   5/12
DUCK PIER NC     0500   42 44  270/ 17/ 21 1006.5R
44100 DUCK FRF   0500      45                N/A     5/12   3/12
44056 DUCK FRF   0500      43                N/A     3/13   2/13
OREGON INLET NC  0500   43 48  270/ 10/ 14 1007.5R
HATTERAS NC      0500   48 56  290/ 19/ 24 1008.5R
DIAMOND SHLS NC  0500   52 71  280/ 25/ 33 1007.3R   9/11   5/11


USA.gov is the U.S. government's official web portal to all federal, state and local government web resources and services.